Bastrop, LA

1:48 AM CDT on June 25, 2017 (GMT -0500)
Bastrop

Weather History for KBQP - September, 2013

Change the Weather History Date:

Thursday, September 5, 2013

  Actual Average (KMLU) Record (KMLU)
Temperature  
Mean Temperature 84 °F -  
Max Temperature 100 °F 88 °F 103 °F (1936)
Min Temperature 67 °F 67 °F 53 °F (1974)
Cooling Degree Days 18    
Growing Degree Days 34 (Base 50)    
Moisture  
Dew Point 62 °F    
Average Humidity 53    
Maximum Humidity 88    
Minimum Humidity 23    
Precipitation  
Precipitation 0.00 in - - ()
Sea Level Pressure  
Sea Level Pressure 30.08 in    
Wind  
Wind Speed 0 mph (WNW)    
Max Wind Speed 9 mph    
Max Gust Speed -    
Visibility 10 miles    
Events      
Averages and records for this station are not official NWS values.
T = Trace of Precipitation, MM = Missing Value Source: NWS Daily Summary

Daily Weather History Graph

Daily Weather History Graph

Search for Another Location

Airport or City:

Trip Planner

Search our weather history database for the weather conditions in past years. The results will help you decide how hot, cold, wet, or windy it might be!

Date:

Astronomy

Sep. 05, 2013 Rise Set
Actual Time 6:44 AM CDT 7:26 PM CDT
Civil Twilight 6:19 AM CDT 7:51 PM CDT
Nautical Twilight 5:50 AM CDT 8:20 PM CDT
Astronomical Twilight 5:20 AM CDT 8:50 PM CDT
Moon 6:53 AM CDT (9/5) 7:23 PM CDT (9/5)
Length of Visible Light 13h 31m
Length of Day
12h 41m
New Moon, 0% of the Moon is Illuminated
Sep 5
New Moon
Sep 12
First Quarter
Sep 19
Full
Sep 26
Last Quarter
Oct 4
New

Hourly Weather History & Observations

Time (CDT) Temp. Heat Index Dew Point Humidity Pressure Visibility Wind Dir Wind Speed Gust Speed Precip Events Conditions
12:15 AM 77.9 °F - 62.2 °F 58% 30.07 in 10.0 mi Calm Calm - N/A   Clear
12:35 AM 77.5 °F - 62.2 °F 59% 30.07 in 10.0 mi Calm Calm - N/A   Clear
12:55 AM 77.0 °F - 62.2 °F 60% 30.07 in 10.0 mi Calm Calm - N/A   Clear
1:15 AM 77.0 °F - 62.2 °F 60% 30.07 in 10.0 mi Calm Calm - N/A   Clear
1:35 AM 77.0 °F - 62.4 °F 61% 30.07 in 10.0 mi Calm Calm - N/A   Clear
1:55 AM 76.6 °F - 62.8 °F 62% 30.07 in 10.0 mi Calm Calm - N/A   Clear
2:15 AM 76.1 °F - 63.5 °F 65% 30.07 in 10.0 mi Calm Calm - N/A   Clear
2:35 AM 75.0 °F - 63.5 °F 67% 30.08 in 10.0 mi Calm Calm - N/A   Clear
2:55 AM 74.3 °F - 63.9 °F 70% 30.07 in 10.0 mi Calm Calm - N/A   Clear
3:15 AM 72.3 °F - 64.0 °F 75% 30.08 in 10.0 mi Calm Calm - N/A   Clear
3:35 AM 70.7 °F - 64.4 °F 80% 30.07 in 10.0 mi Calm Calm - N/A   Clear
3:55 AM 70.5 °F - 64.4 °F 81% 30.07 in 10.0 mi Calm Calm - N/A   Clear
4:15 AM 69.3 °F - 64.4 °F 84% 30.07 in 10.0 mi Calm Calm - N/A   Clear
4:35 AM 70.0 °F - 64.4 °F 82% 30.07 in 10.0 mi Calm Calm - N/A   Clear
4:55 AM 68.9 °F - 64.2 °F 85% 30.08 in 10.0 mi Calm Calm - N/A   Clear
5:15 AM 68.9 °F - 64.4 °F 86% 30.08 in 10.0 mi Calm Calm - N/A   Clear
5:35 AM 69.8 °F - 64.4 °F 83% 30.08 in 10.0 mi Calm Calm - N/A   Clear
5:55 AM 69.8 °F - 64.4 °F 83% 30.08 in 10.0 mi Calm Calm - N/A   Clear
6:15 AM 68.4 °F - 64.2 °F 87% 30.08 in 10.0 mi Calm Calm - N/A   Clear
6:35 AM 67.5 °F - 63.9 °F 88% 30.09 in 10.0 mi Calm Calm - N/A   Clear
6:55 AM 69.1 °F - 64.4 °F 85% 30.09 in 10.0 mi Calm Calm - N/A   Clear
7:15 AM 69.8 °F - 64.6 °F 83% 30.09 in 10.0 mi Calm Calm - N/A   Clear
7:35 AM 71.4 °F - 65.3 °F 81% 30.11 in 10.0 mi Calm Calm - N/A   Clear
7:55 AM 73.0 °F - 65.7 °F 78% 30.11 in 10.0 mi Calm Calm - N/A   Clear
8:15 AM 74.5 °F - 65.8 °F 74% 30.11 in 10.0 mi Calm Calm - N/A   Clear
8:35 AM 76.3 °F - 66.2 °F 71% 30.12 in 10.0 mi Calm Calm - N/A   Clear
8:55 AM 78.4 °F - 66.4 °F 66% 30.12 in 10.0 mi Calm Calm - N/A   Clear
9:15 AM 79.7 °F - 66.4 °F 64% 30.12 in 10.0 mi Calm Calm - N/A   Clear
9:35 AM 82.0 °F 84.5 °F 66.7 °F 60% 30.12 in 10.0 mi Calm Calm - N/A   Clear
9:55 AM 84.2 °F 86.8 °F 66.9 °F 56% 30.13 in 10.0 mi Calm Calm - N/A   Clear
10:15 AM 86.7 °F 89.9 °F 67.6 °F 53% 30.13 in 10.0 mi Calm Calm - N/A   Clear
10:35 AM 88.2 °F 91.3 °F 67.1 °F 50% 30.13 in 10.0 mi Calm Calm - N/A   Clear
10:55 AM 89.6 °F 92.6 °F 66.7 °F 47% 30.13 in 10.0 mi Calm Calm - N/A   Clear
11:15 AM 91.2 °F 94.6 °F 67.1 °F 45% 30.12 in 10.0 mi Calm Calm - N/A   Clear
11:35 AM 93.9 °F 97.0 °F 66.6 °F 40% 30.12 in 10.0 mi Calm Calm - N/A   Clear
11:55 AM 94.6 °F 97.3 °F 65.7 °F 38% 30.12 in 10.0 mi Calm Calm - N/A   Clear
12:15 PM 96.1 °F 97.8 °F 63.5 °F 34% 30.11 in 10.0 mi Calm Calm - N/A   Clear
12:35 PM 96.1 °F 96.9 °F 62.1 °F 32% 30.11 in 10.0 mi Calm Calm - N/A   Clear
12:55 PM 97.5 °F 98.2 °F 60.8 °F 30% 30.10 in 10.0 mi Calm Calm - N/A   Scattered Clouds
1:15 PM 98.1 °F 97.7 °F 58.6 °F 27% 30.09 in 10.0 mi WNW 9.2 mph - N/A   Scattered Clouds
1:35 PM 98.4 °F 97.8 °F 57.7 °F 26% 30.09 in 10.0 mi Calm Calm - N/A   Clear
1:55 PM 99.3 °F 99.1 °F 58.5 °F 26% 30.08 in 10.0 mi Calm Calm - N/A   Clear
2:15 PM 99.3 °F 99.6 °F 59.5 °F 27% 30.07 in 10.0 mi WNW 3.5 mph - N/A   Clear
2:35 PM 99.5 °F 98.4 °F 56.5 °F 24% 30.06 in 10.0 mi Calm Calm - N/A   Clear
2:55 PM 100.6 °F 100.0 °F 57.6 °F 24% 30.05 in 10.0 mi Calm Calm - N/A   Clear
3:15 PM 100.6 °F 100.0 °F 57.7 °F 24% 30.04 in 10.0 mi WNW 6.9 mph - N/A   Clear
3:35 PM 100.9 °F 100.0 °F 56.3 °F 23% 30.04 in 10.0 mi West 5.8 mph - N/A   Clear
3:55 PM 100.6 °F 99.5 °F 56.7 °F 23% 30.04 in 10.0 mi Calm Calm - N/A   Scattered Clouds
4:15 PM 99.3 °F 98.2 °F 56.7 °F 24% 30.03 in 10.0 mi Calm Calm - N/A   Clear
4:35 PM 99.5 °F 98.0 °F 55.9 °F 23% 30.03 in 10.0 mi Calm Calm - N/A   Scattered Clouds
4:55 PM 99.9 °F 99.0 °F 57.4 °F 24% 30.02 in 10.0 mi Calm Calm - N/A   Mostly Cloudy
5:15 PM 99.5 °F 98.9 °F 57.4 °F 25% 30.02 in 10.0 mi Calm Calm - N/A   Scattered Clouds
5:35 PM 99.0 °F 98.6 °F 58.1 °F 26% 30.02 in 10.0 mi Calm Calm - N/A   Scattered Clouds
5:55 PM 98.6 °F 98.0 °F 58.5 °F 26% 30.02 in 10.0 mi Calm Calm - N/A   Scattered Clouds
6:15 PM 97.9 °F 97.4 °F 58.5 °F 27% 30.02 in 10.0 mi Calm Calm - N/A   Scattered Clouds
6:35 PM 96.8 °F 96.2 °F 58.8 °F 28% 30.02 in 10.0 mi Calm Calm - N/A   Scattered Clouds
6:55 PM 95.4 °F 94.6 °F 57.9 °F 29% 30.03 in 10.0 mi Calm Calm - N/A   Mostly Cloudy
7:15 PM 93.0 °F 92.3 °F 58.8 °F 32% 30.03 in 10.0 mi Calm Calm - N/A   Scattered Clouds
7:35 PM 89.4 °F 88.7 °F 59.0 °F 36% 30.04 in 10.0 mi Calm Calm - N/A   Clear
7:55 PM 86.4 °F 86.3 °F 60.8 °F 42% 30.04 in 10.0 mi Calm Calm - N/A   Clear
8:15 PM 87.3 °F 86.5 °F 58.8 °F 38% 30.05 in 10.0 mi Calm Calm - N/A   Clear
8:35 PM 85.8 °F 85.7 °F 60.4 °F 42% 30.06 in 10.0 mi Calm Calm - N/A   Clear
8:55 PM 85.5 °F 85.2 °F 59.7 °F 42% 30.06 in 10.0 mi Calm Calm - N/A   Clear
9:15 PM 81.7 °F 82.6 °F 61.9 °F 51% 30.07 in 10.0 mi Calm Calm - N/A   Clear
9:35 PM 79.7 °F - 61.9 °F 54% 30.08 in 10.0 mi Calm Calm - N/A   Clear
9:55 PM 80.1 °F 81.1 °F 61.0 °F 52% 30.09 in 10.0 mi Calm Calm - N/A   Clear
10:15 PM 77.4 °F - 62.2 °F 59% 30.10 in 10.0 mi Calm Calm - N/A   Clear
10:35 PM 77.2 °F - 62.1 °F 59% 30.10 in 10.0 mi Calm Calm - N/A   Clear
10:55 PM 74.8 °F - 63.0 °F 66% 30.10 in 10.0 mi Calm Calm - N/A   Clear
11:15 PM 73.6 °F - 63.7 °F 71% 30.10 in 10.0 mi Calm Calm - N/A   Clear
11:35 PM 75.0 °F - 61.3 °F 62% 30.09 in 10.0 mi Calm Calm - N/A   Clear
11:55 PM 76.5 °F - 61.7 °F 60% 30.10 in 10.0 mi Calm Calm - N/A   Clear